Brize Norton, United Kingdom

1:26 AM BST on April 24, 2017 (GMT +0100)
Brize Norton Air Base

Weather History for EGVN - December, 2012

Change the Weather History Date:

Monday, December 3, 2012

  Actual Average Record
Temperature  
Mean Temperature 42 °F -  
Max Temperature 49 °F 44 °F 55 °F (2015)
Min Temperature 35 °F 34 °F 24 °F (2010)
Degree Days  
Heating Degree Days 23    
Moisture  
Dew Point 39 °F    
Average Humidity 85    
Maximum Humidity 100    
Minimum Humidity 59    
Precipitation  
Precipitation 0.24 in - - ()
Sea Level Pressure  
Sea Level Pressure 29.72 in    
Wind  
Wind Speed 5 mph ()    
Max Wind Speed 15 mph    
Max Gust Speed 24 mph    
Visibility 6.5 miles    
Events Rain    
Averages and records for this station are not official NWS values.
T = Trace of Precipitation, MM = Missing Value Source: Averaged Metar Reports

Daily Weather History Graph

Daily Weather History Graph

Search for Another Location

Airport or City:

Trip Planner

Search our weather history database for the weather conditions in past years. The results will help you decide how hot, cold, wet, or windy it might be!

Date:

Astronomy

Dec. 03, 2012 Rise Set
Actual Time 7:53 AM GMT 3:58 PM GMT
Civil Twilight 7:14 AM GMT 4:37 PM GMT
Nautical Twilight 6:31 AM GMT 5:20 PM GMT
Astronomical Twilight 5:51 AM GMT 6:01 PM GMT
Moon 8:49 PM GMT (12/3) 10:53 AM GMT (12/3)
Length of Visible Light 9h 23m
Length of Day
8h 04m
Waning Gibbous, 80% of the Moon is Illuminated
Dec 3
Waning Gibbous
Dec 6
Last Quarter
Dec 13
New
Dec 20
First Quarter
Dec 28
Full

Hourly Weather History & Observations

Time (GMT) Temp. Windchill Dew Point Humidity Pressure Visibility Wind Dir Wind Speed Gust Speed Precip Events Conditions
12:50 AM 37.4 °F - 37.4 °F 100% 29.83 in 1.9 mi SSE 2.3 mph - N/A Rain Rain
1:50 AM 39.2 °F 37.0 °F 37.4 °F 93% 29.80 in 1.9 mi SSE 3.5 mph - N/A Rain Rain
2:50 AM 40 °F - 40 °F 100% 29.79 in 2 mi South 2.3 mph - - Rain Light Rain
2:50 AM 41.0 °F - 39.2 °F 93% 29.77 in 1.9 mi South 2.3 mph - N/A Rain Light Rain
3:50 AM 42.8 °F - 41.0 °F 93% 29.74 in 2.2 mi SW 2.3 mph - N/A Rain Light Rain
4:50 AM 46.4 °F 41.9 °F 46.4 °F 100% 29.71 in 3.7 mi WSW 9.2 mph - N/A Rain Light Rain
5:50 AM 48 °F - 47 °F 96% 29.73 in 4 mi West 6.9 mph - - Rain Light Rain
5:50 AM 48.2 °F - 48.2 °F 100% 29.71 in 3.7 mi West 6.9 mph - N/A   Overcast
6:50 AM 48.2 °F - 48.2 °F 100% 29.71 in 5.6 mi WSW 8.1 mph - N/A   Mostly Cloudy
7:50 AM 50.0 °F - 48.2 °F 94% 29.71 in 2.5 mi West 6.9 mph - N/A Rain Heavy Rain
8:50 AM 49 °F - 47 °F 92% 29.72 in 7 mi West 8.1 mph - - Rain Light Rain
8:50 AM 48.2 °F - 48.2 °F 100% 29.71 in 6.2 mi West 8.1 mph - N/A Rain Light Rain
9:50 AM 50.0 °F - 44.6 °F 82% 29.71 in 6.2 mi West 8.1 mph - N/A   Mostly Cloudy
10:50 AM 48.2 °F - 41.0 °F 76% 29.74 in 6.2 mi WNW 15.0 mph - N/A   Mostly Cloudy
11:50 AM 47 °F - 40 °F 67% 29.77 in 25 mi West 15.0 mph - -   Partly Cloudy
11:50 AM 48.2 °F - 39.2 °F 71% 29.74 in 6.2 mi West 15.0 mph - N/A   Mostly Cloudy
12:50 PM 48.2 °F - 37.4 °F 66% 29.74 in 6.2 mi WNW 12.7 mph 24.2 mph N/A   Mostly Cloudy
1:50 PM 48.2 °F - 35.6 °F 62% 29.74 in 6.2 mi West 11.5 mph - N/A   Mostly Cloudy
2:50 PM 45 °F - 35 °F 59% 29.75 in 19 mi West 9.2 mph - -   Scattered Clouds
2:50 PM 44.6 °F 39.7 °F 35.6 °F 71% 29.74 in 6.2 mi West 9.2 mph - N/A   Scattered Clouds
3:50 PM 44.6 °F 42.2 °F 37.4 °F 76% 29.71 in 6.2 mi WSW 4.6 mph - N/A   Scattered Clouds
4:50 PM 42.8 °F 41.1 °F 35.6 °F 76% 29.71 in 6.2 mi SW 3.5 mph - N/A   Mostly Cloudy
5:50 PM 40 °F - 35 °F 77% 29.72 in 16 mi WSW 2.3 mph - -   Scattered Clouds
5:50 PM 41.0 °F - 35.6 °F 81% 29.71 in 6.2 mi WSW 2.3 mph - N/A   Partly Cloudy
6:50 PM 39.2 °F 37.0 °F 33.8 °F 81% 29.68 in - West 3.5 mph - N/A   Clear
7:50 PM 37.4 °F 33.8 °F 33.8 °F 87% 29.68 in - WSW 4.6 mph - N/A   Clear
8:50 PM 36 °F - 34 °F 87% 29.69 in 14 mi WSW 2.3 mph - -   Scattered Clouds
8:50 PM 37.4 °F - 33.8 °F 87% 29.65 in - WSW 2.3 mph - N/A   Clear
9:50 PM 35.6 °F 32.8 °F 32.0 °F 87% 29.65 in - West 3.5 mph - N/A   Clear
10:50 PM 35.6 °F 32.8 °F 33.8 °F 93% 29.62 in - WSW 3.5 mph - N/A   Clear
11:50 PM 36 °F - 33 °F 84% 29.66 in 14 mi West 4.6 mph - -   Scattered Clouds
11:50 PM 35.6 °F 31.7 °F 33.8 °F 93% 29.62 in - West 4.6 mph - N/A   Clear